{"data":{"norad_id":54776,"intl_designator":"2022-175U","name":"STARLINK-5470","alt_names":[],"object_type":"PAYLOAD","status":"ACTIVE","operator":null,"country":"US","launch_date":"2022-12-17","launch_site_code":"AFETR","launch_vehicle":null,"mission":null,"orbit_class":"UNKNOWN","rcs_meters":null,"size_class":null,"mass_kg":null,"dimensions":null,"purposes":["comms"],"wikipedia_slug":null,"has_3d_model":false,"image_url":null,"decayed_at":null,"tle_current":{"epoch":"2026-05-25T04:33:51.056928Z","epoch_age_seconds":55145,"freshness":"FRESH","line1":"1 54776U 22175U   26145.19017427 -.00003610  00000+0 -20873-3 0  9999","line2":"2 54776  53.2126  60.2991 0001312  96.5450 263.5692 15.08860048191478","mean_motion":15.08860048,"eccentricity":0.0001312,"inclination_deg":53.2126,"raan_deg":60.2991,"arg_perigee_deg":96.545,"mean_anomaly_deg":263.5692,"bstar":-0.00020873,"rev_number":19147,"period_min":95.436286613111,"perigee_km":538.77449305958,"apogee_km":540.58972879428,"semimajor_km":6917.8191109269,"source":"CELESTRAK","updated_at":"2026-05-25T13:38:17.691682Z"}}}